AWOS - Automated Weather Observation System

 

0
0
0
0

 

AWOS from is a family of real-time weather observation systems specially designed to detect, report and disseminate weather conditions at airports. It intended use is for various sized of airports, ranging from small domestic landing strips or remotely operated airports to large international airports.

We can offer a turn-key solution including sensors, installation, training comissioning etc, or we can offer you just the customized software package and the rest is done by the customer himself or by a 3rd party. We can also offer the sensors preferred by the customer or we can use the sensors existing at the airport today and implement them in the new AWOS system.

Real Time Data from Combitech in Linköping

METAR CABX 161450Z AUTO VRB02KT 7000 R01/P2000N R19///// BR FEW012/// BKN030/// OVC082/// 00/M01 Q0989

Linköping Sweden, Lat: 58.39172, Lon: 15.56505

 

 

 

 

 

Örnsköldsvik Airport orders DRIWS

Örnsköldsvik Airport orders DRIWS-system for 17 vehicles. (Digital Runway Incursion Warning System)


Lahr Airport Germany orders AWOS7

Complete system including software, hardware and all sensors. Installation planned for Q1 2018


Visa alla


AWOS Airport weather data:
     http://wx.awos.se

 

2017-12-16 14:51:21